Flag for U.S.A. Weather past 2 weeks in Louisville, Kentucky, U.S.A.

Now
75 °F

Sunny.


Feels Like: 77 °F
Forecast: 48 / 72 °F
Wind: 9 mph from Northeast

Location: Standiford Field

Current Time: Sep 23, 2014 at 5:12:32 PM

Latest Report: Sep 23, 2014 at 3:56 PM


Visibility: 10 mi

Pressure: 30.26 "Hg

Humidity: 33%

Dew point: 44 °F

Location of LouisvilleLocation

Historic Weather in Louisville — Graph

°F

Louisville temperature yesterday

Maximum temperature yesterday: 69 °F (at 4:56 PM)
Minimum temperature yesterday: 55 °F (at 6:56 AM)
Average temperature yesterday: 61 °F

Past Weeks' High & Low Weather Summary

 TemperatureHumidityPressure
High85 °F (Sep 8, 5:56 PM)93% (Sep 11, 1:56 AM)30.33 "Hg (Sep 11, 1:56 AM)
Low50 °F (Sep 14, 6:56 AM)31% (Sep 21, 3:56 PM)29.78 "Hg (Sep 10, 7:56 PM)
Average67 °F68%30.08 "Hg
* Reported Sep 8 3:56 PM — Sep 23 3:56 PM, Louisville, Weather by CustomWeather, © 2014

Note: Actual official high and low records may vary slightly from our data, if they occured in-between our weather recording intervals... More about our weather records

Advertising

Louisville weather history for previous 24 hours

 ConditionsComfort  
Time TempWeatherWind HumidityBarometerVisibility
3:56 PM
Sep 23
75 °FSunny.9 mph33%30.26 "Hg10 mi
2:56 PM73 °FSunny.9 mph34%30.29 "Hg10 mi
1:56 PM72 °FSunny.9 mph37%30.30 "Hg10 mi
12:56 PM70 °FSunny.7 mph38%30.32 "Hg10 mi
11:56 AM68 °FSunny.9 mph40%30.32 "Hg10 mi
10:56 AM64 °FSunny.6 mph50%30.33 "Hg10 mi
9:56 AM59 °FSunny.No wind60%30.33 "Hg10 mi
8:56 AM56 °FSunny.No wind67%30.32 "Hg10 mi
7:56 AM51 °FClear.3 mph77%30.31 "Hg10 mi
6:56 AM50 °FClear.No wind80%30.29 "Hg9 mi
5:56 AM51 °FClear.No wind80%30.28 "Hg10 mi
4:56 AM52 °FClear.No wind80%30.28 "Hg10 mi
3:56 AM52 °FClear.5 mph80%30.27 "Hg10 mi
2:56 AM52 °FClear.3 mph80%30.27 "Hg10 mi
1:56 AM53 °FClear.3 mph80%30.27 "Hg10 mi
12:56 AM56 °FClear.No wind75%30.27 "Hg10 mi
11:56 PM
Sep 22
57 °FClear.No wind69%30.26 "Hg10 mi
10:56 PM59 °FClear.3 mph62%30.25 "Hg10 mi
9:56 PM60 °FClear.6 mph58%30.24 "Hg10 mi
8:56 PM61 °FClear.7 mph56%30.23 "Hg10 mi
7:56 PM63 °FSunny.7 mph50%30.21 "Hg10 mi
6:56 PM67 °FSunny.13 mph42%30.21 "Hg10 mi
5:56 PM68 °FSunny.9 mph40%30.20 "Hg10 mi
Weather by CustomWeather, © 2014

See weather overviewHow to use our weather pages